Puyallup, WA
on Monday, January 14, 2013

Monday
Previous Day Next Day
Daily Summary
 ActualAverage (KSEA)Record (KSEA)
Temperature
Mean Temperature °F 42°F  
Max Temperature 39°F 47°F 59°F (1968)
Min Temperature 19°F 37°F 8°F (1950)
Degree Days
Heating Degree Days 36 23  
Month to date heating degree days 330  
Since 1 July heating degree days 2268  
Cooling Degree Days 0 0  
Month to date cooling degree days 0  
Year to date cooling degree days 0  
Moisture
Dew Point 25°F   
Average Humidity 91    
Maximum Humidity 100    
Minimum Humidity 60    
Precipitation
Precipitation 0.00 in 0.19 in 1.61 in (1988)
Month to date precipitation 2.64  
Year to date precipitation 2.64  
Snow
Snow 0.00 in in 4.00 in (1950)
Month to date snowfall  
Since 1 July snowfall  
Snow Depth in   
Wind
Wind Speed 0 mph   
Max Wind Speed 4 mph   
Max Gust Speed mph   
Visibility 10 miles   
Events     

Key: T is trace of precipitation, MM is missing value
Source: NWS Daily Summary
Time(PST)TemperatureDew PointHumidity Pressure Visibility Wind DirectionWind SpeedGust SpeedPrecipitationEvents Conditions
12:15 AM 23.0°F 23.0°F 100% 30.46 in 10.0 miles Calm Calm - N/A   Partly Cloudy
12:55 AM 21.2°F 21.2°F 100% 30.46 in 10.0 miles Calm Calm - N/A   Scattered Clouds
1:15 AM 21.2°F 21.2°F 100% 30.45 in 10.0 miles Calm Calm - N/A   Clear
1:35 AM 23.0°F 23.0°F 100% 30.47 in 10.0 miles Calm Calm - N/A   Mostly Cloudy
1:55 AM 23.0°F 23.0°F 100% 30.47 in 10.0 miles Calm Calm - N/A   Overcast
2:15 AM 23.0°F 23.0°F 100% 30.47 in 10.0 miles Calm Calm - N/A   Mostly Cloudy
2:35 AM 23.0°F 23.0°F 100% 30.48 in 10.0 miles Calm Calm - N/A   Clear
2:55 AM 21.2°F 21.2°F 100% 30.48 in 10.0 miles Calm Calm - N/A   Clear
3:15 AM 21.2°F 21.2°F 100% 30.48 in 10.0 miles Calm Calm - N/A   Clear
3:35 AM 21.2°F 19.4°F 93% 30.49 in 10.0 miles Calm Calm - N/A   Clear
3:55 AM 23.0°F 21.2°F 93% 30.49 in 10.0 miles Calm Calm - N/A   Clear
4:15 AM 21.2°F 21.2°F 100% 30.48 in 10.0 miles Calm Calm - N/A   Clear
4:35 AM 21.2°F 19.4°F 93% 30.47 in 10.0 miles Calm Calm - N/A   Clear
4:55 AM 19.4°F 19.4°F 100% 30.48 in 10.0 miles Calm Calm - N/A   Clear
5:15 AM 21.2°F 19.4°F 93% 30.47 in 10.0 miles Calm Calm - N/A   Clear
5:35 AM 19.4°F 19.4°F 100% 30.48 in 10.0 miles Calm Calm - N/A   Clear
5:55 AM 21.2°F 21.2°F 100% 30.48 in 10.0 miles Calm Calm - N/A   Clear
6:15 AM 21.2°F 21.2°F 100% 30.48 in 10.0 miles Calm Calm - N/A   Clear
6:35 AM 21.2°F 21.2°F 100% 30.48 in 10.0 miles Calm Calm - N/A   Clear
6:55 AM 23.0°F 21.2°F 93% 30.50 in 10.0 miles Calm Calm - N/A   Partly Cloudy
7:15 AM 23.0°F 23.0°F 100% 30.48 in 10.0 miles Calm Calm - N/A   Mostly Cloudy
7:35 AM 23.0°F 23.0°F 100% 30.48 in 10.0 miles Calm Calm - N/A   Overcast
7:55 AM 24.8°F 24.8°F 100% 30.48 in 10.0 miles Calm Calm - N/A   Overcast
8:15 AM 24.8°F 24.8°F 100% 30.49 in 10.0 miles Calm Calm - N/A   Scattered Clouds
8:35 AM 24.8°F 24.8°F 100% 30.49 in 10.0 miles Calm Calm - N/A   Scattered Clouds
8:55 AM 26.6°F 24.8°F 93% 30.50 in 10.0 miles Calm Calm - N/A   Mostly Cloudy
9:15 AM 26.6°F 26.6°F 100% 30.50 in 10.0 miles Calm Calm - N/A   Overcast
9:35 AM 26.6°F 26.6°F 100% 30.50 in 10.0 miles Calm Calm - N/A   Mostly Cloudy
9:55 AM 28.4°F 28.4°F 100% 30.50 in 10.0 miles Calm Calm - N/A   Mostly Cloudy
10:15 AM 30.2°F 28.4°F 93% 30.50 in 10.0 miles Calm Calm - N/A   Mostly Cloudy
10:35 AM 30.2°F 28.4°F 93% 30.50 in 10.0 miles Calm Calm - N/A   Mostly Cloudy
10:55 AM 32.0°F 30.2°F 93% 30.50 in 10.0 miles Calm Calm - N/A   Mostly Cloudy
11:15 AM 32.0°F 28.4°F 87% 30.50 in 10.0 miles Calm Calm - N/A   Overcast
11:35 AM 32.0°F 28.4°F 87% 30.50 in 10.0 miles Calm Calm - N/A   Mostly Cloudy
12:15 PM 35.6°F 26.6°F 70% 30.48 in 10.0 miles Calm Calm - N/A   Scattered Clouds
12:55 PM 37.4°F 24.8°F 60% 30.49 in 10.0 miles Calm Calm - N/A   Scattered Clouds
1:15 PM 37.4°F 26.6°F 65% 30.49 in 10.0 miles Calm Calm - N/A   Clear
1:35 PM 39.2°F 26.6°F 61% 30.50 in 10.0 miles Calm Calm - N/A   Partly Cloudy
1:55 PM 39.2°F 26.6°F 61% 30.49 in 10.0 miles WNW 3.5 mph - N/A   Partly Cloudy
2:15 PM 37.4°F 24.8°F 60% 30.50 in 10.0 miles Calm Calm - N/A   Partly Cloudy
2:35 PM 37.4°F 26.6°F 65% 30.50 in 10.0 miles SW 3.5 mph - N/A   Partly Cloudy
2:55 PM 37.4°F 26.6°F 65% 30.50 in 10.0 miles Calm Calm - N/A   Scattered Clouds
3:15 PM 37.4°F 26.6°F 65% 30.50 in 10.0 miles Calm Calm - N/A   Partly Cloudy
3:35 PM 37.4°F 26.6°F 65% 30.51 in 10.0 miles Calm Calm - N/A   Scattered Clouds
3:55 PM 37.4°F 26.6°F 65% 30.51 in 10.0 miles Calm Calm - N/A   Mostly Cloudy
4:35 PM 35.6°F 28.4°F 75% 30.50 in 10.0 miles Calm Calm - N/A   Mostly Cloudy
4:55 PM 32.0°F 28.4°F 87% 30.50 in 10.0 miles Calm Calm - N/A   Scattered Clouds
5:15 PM 32.0°F 28.4°F 87% 30.50 in 10.0 miles Calm Calm - N/A   Partly Cloudy
5:55 PM 32.0°F 28.4°F 87% 30.52 in 10.0 miles Calm Calm - N/A   Mostly Cloudy
6:15 PM 32.0°F 28.4°F 87% 30.51 in 10.0 miles Calm Calm - N/A   Mostly Cloudy
6:35 PM 32.0°F 28.4°F 87% 30.51 in 10.0 miles Calm Calm - N/A   Mostly Cloudy
6:55 PM 30.2°F 28.4°F 93% 30.52 in 10.0 miles Calm Calm - N/A   Scattered Clouds
7:15 PM 28.4°F 28.4°F 100% 30.53 in 10.0 miles Calm Calm - N/A   Clear
7:35 PM 28.4°F 28.4°F 100% 30.53 in 10.0 miles Calm Calm - N/A   Clear
7:55 PM 28.4°F 28.4°F 100% 30.53 in 10.0 miles Calm Calm - N/A   Scattered Clouds
8:15 PM 28.4°F 28.4°F 100% 30.54 in 10.0 miles Calm Calm - N/A   Scattered Clouds
8:35 PM 28.4°F 28.4°F 100% 30.54 in 10.0 miles Calm Calm - N/A   Clear
8:55 PM 28.4°F 28.4°F 100% 30.54 in 10.0 miles Calm Calm - N/A   Scattered Clouds
9:15 PM 28.4°F 28.4°F 100% 30.54 in 10.0 miles Calm Calm - N/A   Overcast
9:35 PM 28.4°F 28.4°F 100% 30.54 in 10.0 miles Calm Calm - N/A   Mostly Cloudy
9:55 PM 28.4°F 28.4°F 100% 30.54 in 10.0 miles Calm Calm - N/A   Scattered Clouds
10:15 PM 26.6°F 26.6°F 100% 30.54 in 10.0 miles Calm Calm - N/A   Clear
10:35 PM 26.6°F 26.6°F 100% 30.54 in 10.0 miles Calm Calm - N/A   Clear
10:55 PM 26.6°F 26.6°F 100% 30.55 in 10.0 miles Calm Calm - N/A   Clear
11:15 PM 26.6°F 26.6°F 100% 30.55 in 10.0 miles Calm Calm - N/A   Clear
11:35 PM 24.8°F 24.8°F 100% 30.56 in 10.0 miles Calm Calm - N/A   Clear
11:55 PM 24.8°F 24.8°F 100% 30.55 in 10.0 miles Calm Calm - N/A   Clear
Moon Phase
Jan. 14 Jan. 18 Jan. 26 Feb. 03 Feb. 10
Sunrise:07:51 AM (PST) Moon Rise:09:11 AM (PST)1/14
Sunset:04:45 PM (PST) Moon Set:08:55 PM (PST)1/14

Copyright © 2014 The Weather Underground, Inc.